Terminal Aerodrome Forecast
Issued by NWS

Home | Current Version | Previous Version | Text Only | Print | Product List | Glossary On
Versions: 1 2 3 4 5 6 7 8 9 10 11 12 13 14 15 16 17 18 19 20 21 22 23 24 25 26 27 28 29 30 31 32 33 34 35 36 37 38 39 40 41 42
000
FTAK31 PANC 221139
TAFADL
TAF
PADL 221139Z 2212/2312 31011KT P6SM SCT050
     FM221800 32013G20KT P6SM FEW250
     FM230400 32009KT P6SM FEW250
      AMD LTD TO CLD VIS AND WIND TIL 221600=

USA.gov is the U.S. government's official web portal to all federal, state and local government web resources and services.